Regional Weather Roundup
Issued by NWS

Home | Current Version | Previous Version | Graphics & Text | Print | Product List | Glossary On
Versions: 1 2 3 4 5 6 7 8 9 10 11 12 13 14 15 16 17 18 19 20 21 22 23 24 25 26 27 28 29 30 31 32 33 34 35 36 37 38 39 40 41 42 43 44 45 46 47 48
000
ASUS43 KDMX 141207
RWRIA

WEATHER ROUNDUP FOR IOWA
NATIONAL WEATHER SERVICE DES MOINES IA
700 AM CDT SUN SEP 14 2014

NOTE: "FAIR" INDICATES FEW OR NO CLOUDS BELOW 12,000 FEET WITH NO
SIGNIFICANT WEATHER AND/OR OBSTRUCTIONS TO VISIBILITY.

* - THESE STATIONS ARE NOT NWS STATIONS...THUS NOT UNDER NWS
QUALITY CONTROL.  THEY ALSO DO NOT REPORT WEATHER SUCH
AS PRECIPITATION OR FOG.

IAZ001>003-012>014-020>022-031>034-043>046-141300-
   NORTHWEST IOWA

CITY           SKY/WX    TMP DP  RH WIND       PRES   REMARKS
CARROLL *      CLEAR     45  43  93 SW5       30.21S
CHEROKEE *     CLEAR     43  43 100 S3        30.19R
DENISON *      CLEAR     45  45 100 CALM      30.20R
LE MARS *        N/A     45  43  93 S6        30.18S
ORANGE CITY *  CLEAR     43  39  87 SW6       30.17S
SHELDON *      CLEAR     43  43 100 SW3       30.16S
SIOUX CITY     CLEAR     42  41  96 SE5       30.20S
6HR MIN TEMP:  42; 6HR MAX TEMP:  48;

SPENCER        CLEAR     44  41  89 SW7       30.18R
6HR MIN TEMP:  43; 6HR MAX TEMP:  47;

STORM LAKE *   CLEAR     43  43 100 S6        30.19S
$$

IAZ055>058-069>071-079>083-090>094-141300-
   SOUTHWEST IOWA

CITY           SKY/WX    TMP DP  RH WIND       PRES   REMARKS
ATLANTIC *     CLOUDY    50  46  87 S5        30.22S
AUDUBON *      CLOUDY    54  48  82 S6        30.23S
CLARINDA *     PTCLDY    46  45  93 CALM      30.25S
COUNCIL BLFS * CLEAR     46  46 100 S5        30.21R
CRESTON *      CLOUDY    48  45  87 S6        30.25R
HARLAN  *      PTCLDY    48  46  93 S5        30.25S
LAMONI         CLOUDY    49  45  86 S6        30.26R
6HR MIN TEMP:  47; 6HR MAX TEMP:  49;

SHENANDOAH *   CLEAR     45  45 100 CALM      30.24S
$$

IAZ047>049-059>061-072>074-084-141300-
   CENTRAL IOWA

CITY           SKY/WX    TMP DP  RH WIND       PRES   REMARKS
AMES           CLOUDY    48  47  96 SE3       30.24R
6HR MIN TEMP:  45; 6HR MAX TEMP:  49;

ANKENY *       CLOUDY    50  46  87 S5        30.24S
CHARITON *     CLOUDY    48  45  87 S6        30.26R
DES MOINES     CLOUDY    51  45  79 S8        30.24S
6HR MIN TEMP:  49; 6HR MAX TEMP:  51;

GRINNELL*      CLOUDY    46  43  87 S6        30.26S
KNOXVILLE *    CLOUDY    48  43  81 S8        30.24S
MARSHALLTOWN   CLOUDY    48  44  86 S5        30.24R
6HR MIN TEMP:  45; 6HR MAX TEMP:  49;

PELLA *        CLOUDY    48  45  90 S3        30.27S
PERRY *        CLOUDY    50  46  87 S3        30.23R
$$

IAZ004>006-015-016-023>025-035-036-141300-
   NORTH CENTRAL IOWA

CITY           SKY/WX    TMP DP  RH WIND       PRES   REMARKS
ALGONA *       PTCLDY    45  45 100 S8        30.19S
CLARION *        N/A     45  43  93 S8        30.21S
ESTHERVILLE    CLEAR     43  41  93 SW6       30.17R
6HR MIN TEMP:  40; 6HR MAX TEMP:  45;

FORT DODGE *   CLEAR     45  41  87 S6        30.21S
MASON CITY     CLOUDY    49  44  83 S8        30.21S
6HR MIN TEMP:  44; 6HR MAX TEMP:  49;

FOREST CITY *  MOCLDY    46  43  87 S6        30.19S
IOWA FALLS *   CLOUDY    48  43  81 S7        30.23S
$$

IAZ007>011-017>019-026>030-037>042-050>054-066-141300-
   NORTHEAST IOWA

CITY           SKY/WX    TMP DP  RH WIND       PRES   REMARKS
CEDAR RAPIDS   CLOUDY    43  42  97 S5        30.26S
6HR MIN TEMP:  39; 6HR MAX TEMP:  43;

CHARLES CITY * CLOUDY    48  45  87 S7        30.23S
CLINTON *      CLEAR     36  34  93 SE3       30.32S
DECORAH *      CLOUDY    48  41  76 S7        30.22S
DUBUQUE        CLEAR     40  38  93 SW5       30.27S
6HR MIN TEMP:  39; 6HR MAX TEMP:  44;

MONTICELLO *   MOCLDY    41  41 100 CALM      30.27S
OELWEIN *      CLOUDY    45  43  93 S7        30.26R
WATERLOO       CLOUDY    49  43  80 S6        30.24R
6HR MIN TEMP:  44; 6HR MAX TEMP:  49;

$$

IAZ064-065-067-068-078-141300-
   EAST CENTRAL IOWA

CITY           SKY/WX    TMP DP  RH WIND       PRES   REMARKS
DAVENPORT      CLEAR     40  36  86 S5        30.30S
6HR MIN TEMP:  38; 6HR MAX TEMP:  43;

IOWA CITY      MOCLDY    41  40  96 S5        30.29S
6HR MIN TEMP:  40; 6HR MAX TEMP:  43;

MT. PLEASANT * PTCLDY    40  39  95 SE6       30.29R
MUSCATINE *    FOG       39  37  93 CALM      30.29F VSB 3/4
QUAD CITIES    CLEAR     39  37  92 CALM      30.30S
6HR MIN TEMP:  38; 6HR MAX TEMP:  42;

$$

IAZ062-063-075>077-085>089-095>099-141300-
   SOUTHEAST IOWA

CITY           SKY/WX    TMP DP  RH WIND       PRES   REMARKS
BURLINGTON     LGT RAIN  42  41  96 SE3       30.29S
6HR MIN TEMP:  40; 6HR MAX TEMP:  44; 6HR PCP: TRACE;

FAIRFIELD *    CLOUDY    46  41  81 S6        30.28S
FORT MADISON * PTCLDY    46  43  87 S3        30.30S
KEOKUK *       FOG       43  43 100 SE3       30.29S VSB 0
OSKALOOSA *    CLOUDY    46  44  94 S5        30.27S
CENTERVILLE *  CLOUDY    46  46 100 S5        30.28S
OTTUMWA        CLOUDY    47  43  86 S7        30.27S
6HR MIN TEMP:  41; 6HR MAX TEMP:  47;

WASHINGTON *   PTCLDY    39  39 100 CALM      30.28R FOG
$$

ABBREVIATIONS USED IN REMARKS
   TC - TEMPERATURES IN CELSIUS
  WCI - WIND CHILL INDEX
   HX - HEAT INDEX
  VSB - VISIBILITY
$$




USA.gov is the U.S. government's official web portal to all federal, state and local government web resources and services.